FW1340 Weather Reports


time (UTC)temp
C
wind
direction
speed
KPH
gust
KPH
rain 1hr
cm
rain 24hr
cm
rain mn
cm
humidity
%
barometer
mb
20260906000051 28 274 0.0 0.0 0.00 0.00 0.00 35 1012.5
20260905234549 27 236 0.0 0.0 0.00 0.00 0.00 37 1012.6
20260905233052 27 298 0.0 0.0 0.00 0.00 0.00 38 1012.6
20260905231547 27 250 0.0 0.0 0.00 0.00 0.00 38 1012.7
20260905230051 28 253 0.0 0.0 0.00 0.00 0.00 39 1012.9
20260905224554 28 277 0.0 0.0 0.00 0.00 0.00 38 1013.1
20260905223046 28 245 0.0 0.0 0.00 0.00 0.00 39 1013.0
20260905221546 27 232 0.0 0.0 0.00 0.00 0.00 41 1013.2
20260905220036 27 312 0.0 0.0 0.00 0.00 0.00 42 1013.4
20260905214535 27 312 0.0 0.0 0.00 0.00 0.00 40 1013.5
20260905213035 27 355 0.0 0.0 0.00 0.00 0.00 40 1013.6
20260905211542 27 323 0.0 0.0 0.00 0.00 0.00 40 1013.7
20260905210028 27 285 0.0 0.0 0.00 0.00 0.00 40 1013.7
20260905204528 26 283 0.0 0.0 0.00 0.00 0.00 42 1013.9
20260905203027 26 313 0.0 0.0 0.00 0.00 0.00 45 1014.0
20260905201520 26 242 0.0 0.0 0.00 0.00 0.00 46 1014.1
20260905200020 26 250 0.0 0.0 0.00 0.00 0.00 47 1014.2
20260905194513 25 242 0.0 0.0 0.00 0.00 0.00 50 1014.4
20260905193008 24 328 0.0 0.0 0.00 0.00 0.00 54 1014.5
20260905191504 23 313 0.0 0.0 0.00 0.00 0.00 55 1014.7
20260905190003 23 261 0.0 0.0 0.00 0.00 0.00 56 1014.9
20260905184608 23 244 0.0 0.0 0.00 0.00 0.00 57 1014.9
20260905183055 22 222 0.0 0.0 0.00 0.00 0.00 58 1015.0
20260905181550 22 325 0.0 0.0 0.00 0.00 0.00 60 1015.0
20260905180047 21 225 0.0 0.0 0.00 0.00 0.00 62 1015.0
20260905174542 21 274 0.0 0.0 0.00 0.00 0.00 63 1014.9
20260905173039 21 227 0.0 0.0 0.00 0.00 0.00 65 1014.9
20260905171551 20 242 0.0 0.0 0.00 0.00 0.00 66 1015.0
20260905170032 19 269 0.0 0.0 0.00 0.00 0.00 69 1014.9
20260905164531 19 267 0.0 0.0 0.00 0.00 0.00 70 1014.9
20260905163026 18 331 0.0 0.0 0.00 0.00 0.00 72 1014.9
20260905161533 18 257 0.0 0.0 0.00 0.00 0.00 74 1014.8
20260905160028 17 259 0.0 0.0 0.00 0.00 0.00 75 1014.9
20260905154525 16 256 0.0 0.0 0.00 0.00 0.00 78 1014.9
20260905153011 15 360 0.0 0.0 0.00 0.00 0.00 82 1014.9
20260905151505 14 69 0.0 0.0 0.00 0.00 0.00 85 1014.9
20260905150002 12 92 0.0 0.0 0.00 0.00 0.00 90 1014.9
20260905144559 11 80 0.0 0.0 0.00 0.00 0.00 92 1014.8
20260905143054 10 76 0.0 0.0 0.00 0.00 0.00 91 1014.7
20260905141550 10 76 0.0 0.0 0.00 0.00 0.00 91 1014.6
20260905140051 10 76 0.0 0.0 0.00 0.00 0.00 90 1014.5
20260905134551 10 38 0.0 0.0 0.00 0.00 0.00 91 1014.4
20260905133046 10 80 0.0 0.0 0.00 0.00 0.00 91 1014.3
20260905131546 10 117 0.0 0.0 0.00 0.00 0.00 91 1014.3
20260905130044 10 117 0.0 0.0 0.00 0.00 0.00 90 1014.2
20260905124548 10 117 0.0 0.0 0.00 0.00 0.00 90 1014.1
20260905123041 10 117 0.0 0.0 0.00 0.00 0.00 90 1014.2
20260905121540 10 117 0.0 0.0 0.00 0.00 0.00 89 1014.2
20260905120039 10 89 0.0 0.0 0.00 0.00 0.00 89 1014.2
20260905114536 10 74 0.0 0.0 0.00 0.00 0.00 89 1014.2
20260905113036 10 74 0.0 0.0 0.00 0.00 0.00 89 1014.2
20260905111535 10 74 0.0 0.0 0.00 0.00 0.00 89 1014.3
20260905110034 10 344 0.0 0.0 0.00 0.00 0.00 89 1014.4
20260905104543 10 106 0.0 0.0 0.00 0.00 0.00 87 1014.4
20260905103033 10 103 0.0 0.0 0.00 0.00 0.00 85 1014.5
20260905101526 11 162 0.0 0.0 0.00 0.00 0.00 84 1014.4
20260905100023 11 162 0.0 0.0 0.00 0.00 0.00 86 1014.6
20260905094521 12 161 0.0 0.0 0.00 0.00 0.00 84 1014.4
20260905093018 12 186 0.0 0.0 0.00 0.00 0.00 84 1014.4
20260905091515 12 225 0.0 0.0 0.00 0.00 0.00 83 1014.4
20260905090018 12 225 0.0 0.0 0.00 0.00 0.00 83 1014.5
20260905084517 13 112 0.0 0.0 0.00 0.00 0.00 82 1014.6
20260905083012 13 112 0.0 0.0 0.00 0.00 0.00 81 1014.6
20260905081507 13 86 0.0 0.0 0.00 0.00 0.00 82 1014.6
20260905080006 13 77 0.0 0.0 0.00 0.00 0.00 82 1014.6
20260905074501 14 88 0.0 0.0 0.00 0.00 0.00 79 1014.5
20260905073100 15 253 0.0 0.0 0.00 0.00 0.00 80 1014.3
20260905071602 15 244 0.0 0.0 0.00 0.00 0.00 80 1014.1
20260905070054 15 234 0.0 0.0 0.00 0.00 0.00 79 1014.1
20260905064558 15 249 0.0 0.0 0.00 0.00 0.00 79 1014.0
20260905063052 15 232 0.0 0.0 0.00 0.00 0.00 79 1014.1
20260905061608 15 252 0.0 0.0 0.00 0.00 0.00 78 1014.1
20260905060051 16 232 0.0 0.0 0.00 0.00 0.00 74 1014.2
20260905054551 16 263 0.0 0.0 0.00 0.00 0.00 73 1014.1
20260905053054 16 270 0.0 0.0 0.00 0.00 0.00 73 1014.2
20260905051550 16 261 0.0 0.0 0.00 0.00 0.00 72 1014.2
20260905050050 16 259 0.0 0.0 0.00 0.00 0.00 73 1014.3
20260905044550 17 256 0.0 0.0 0.00 0.00 0.00 71 1014.4
20260905043110 17 252 0.0 0.0 0.00 0.00 0.00 69 1014.1
20260905041548 18 275 0.0 0.0 0.00 0.00 0.00 68 1014.1
20260905040112 18 259 0.0 0.0 0.00 0.00 0.00 66 1013.9
20260905034546 19 265 0.0 0.0 0.00 0.00 0.00 64 1013.6
20260905033046 20 269 0.0 0.0 0.00 0.00 0.00 62 1013.5
20260905031546 20 255 0.0 0.0 0.00 0.00 0.00 59 1013.3
20260905030046 21 266 0.0 0.0 0.00 0.00 0.00 55 1013.1
20260905024544 21 257 0.0 0.0 0.00 0.00 0.00 53 1013.0
20260905023047 22 271 0.0 0.0 0.00 0.00 0.00 50 1012.8
20260905021548 23 259 0.0 0.0 0.00 0.00 0.00 44 1012.7
20260905020043 24 261 0.0 0.0 0.00 0.00 0.00 40 1012.7
20260905014543 24 256 0.0 0.0 0.00 0.00 0.00 39 1012.7
20260905013049 25 235 0.0 0.0 0.00 0.00 0.00 38 1012.7
20260905011542 25 250 0.0 0.0 0.00 0.00 0.00 38 1012.6
20260905010049 25 265 0.0 0.0 0.00 0.00 0.00 38 1012.6
20260905004541 25 228 0.0 0.0 0.00 0.00 0.00 39 1012.6
20260905003040 25 242 0.0 0.0 0.00 0.00 0.00 38 1012.5
20260905001539 25 251 0.0 0.0 0.00 0.00 0.00 39 1012.6